Wind_Speed
65 66 65 65 65 65 64 64 64 63 63 61 61 60 59 57 57 60 61 61 58 53 52 53 53 56 57 57 57 57 57 55 55 57 59 60 60 60 61 60 59 58 58 57 57 58 58 57 57 56 55 55 55 55 54 52 51 50 49 48 48 50 51 52 54 56 57 58 59 59 61 62 63 64
66 66 66 66 66 65 65 64 64 63 62 62 61 61 60 56 55 57 60 61 59 56 54 53 51 53 55 57 58 58 57 56 55 56 57 59 60 60 61 60 59 58 57 57 57 57 57 57 56 55 55 55 55 54 53 52 50 49 49 48 48 49 50 52 53 55 57 58 58 59 60 62 63 64
66 67 67 67 66 66 65 64 64 63 62 62 61 61 60 57 55 55 59 61 60 57 56 53 51 51 52 55 57 57 57 57 56 56 56 57 59 59 60 60 58 57 56 56 56 56 56 56 55 54 53 53 53 53 52 51 49 49 48 48 48 49 50 51 53 55 56 58 59 59 60 62 63 64
65 66 66 67 66 66 65 65 64 63 63 62 61 61 61 59 57 55 58 61 61 59 57 54 51 50 50 52 54 56 57 56 56 56 55 56 57 59 59 58 58 57 56 55 55 55 55 55 54 52 51 51 51 51 51 50 49 48 48 48 48 49 50 51 52 54 56 57 59 60 61 61 62 63
62 64 65 66 66 65 65 65 65 64 63 63 62 62 62 61 59 57 58 61 62 61 59 55 53 51 49 49 51 53 55 56 56 56 55 55 56 57 58 58 57 56 55 55 55 55 55 54 52 50 49 50 50 50 50 50 49 49 48 49 49 49 49 50 52 53 55 57 58 60 61 62 63 64
61 62 63 64 65 65 65 66 65 64 63 63 63 63 63 63 62 59 58 59 61 62 61 57 54 53 51 50 49 49 52 53 55 56 55 55 55 56 57 57 57 56 55 55 54 54 54 53 50 48 48 49 49 50 50 50 49 49 49 49 49 49 49 50 51 52 54 56 58 60 62 62 63 64
60 61 62 63 63 64 64 65 65 64 64 63 63 63 63 63 63 61 59 59 59 62 62 59 56 54 52 50 48 47 48 50 53 55 56 55 55 55 56 57 56 56 55 55 54 54 53 52 49 47 48 49 49 50 50 50 49 49 48 49 49 49 50 50 50 52 54 56 58 60 61 62 63 64
60 61 62 62 62 62 63 64 65 65 64 63 63 63 63 63 63 63 62 60 59 60 61 61 58 55 53 51 48 46 46 48 49 52 54 55 55 55 55 56 56 55 55 54 54 54 53 50 48 47 47 48 49 49 50 49 49 48 48 49 49 50 50 50 50 51 53 55 57 59 60 61 62 63
61 62 62 61 61 62 63 63 63 64 63 62 61 62 62 62 62 63 64 63 60 59 61 62 60 57 55 52 49 46 45 46 46 48 51 54 55 55 55 55 55 54 54 54 54 53 51 49 47 46 47 48 48 49 49 49 48 47 47 48 48 49 49 49 50 51 53 55 56 58 59 60 61 61
61 62 63 62 61 61 62 62 61 61 60 59 59 60 61 60 61 63 65 65 62 60 61 63 61 59 57 54 51 47 44 44 44 44 47 50 53 54 54 54 53 53 53 53 53 53 50 48 46 46 47 47 48 48 48 48 47 46 46 46 47 48 48 49 50 51 52 54 55 56 57 58 59 59
60 61 62 62 62 61 60 60 60 60 58 56 56 57 59 59 59 61 64 65 64 61 62 63 63 61 57 55 52 48 44 43 43 43 44 47 49 51 51 51 51 51 52 53 53 51 48 46 46 46 47 47 47 47 47 46 45 44 44 45 46 47 48 49 49 50 52 53 54 55 56 56 57 57
59 60 60 61 62 61 60 59 59 59 57 55 55 56 57 58 58 59 62 64 64 62 62 63 63 61 58 55 53 49 45 43 42 41 41 43 45 46 48 49 49 50 51 52 51 49 46 45 45 46 47 47 46 46 46 44 42 42 43 44 46 47 48 48 49 50 50 52 53 53 54 55 54 54
58 59 60 60 61 61 60 59 58 59 58 56 56 56 56 56 56 57 59 61 62 63 63 64 63 61 58 55 52 49 45 41 39 37 38 40 42 43 46 47 48 48 49 50 48 46 45 45 45 46 46 46 45 45 43 41 40 41 42 44 45 46 47 47 48 48 49 50 51 52 52 52 52 52
58 59 59 60 60 61 61 59 59 60 59 58 57 56 55 55 55 54 56 58 61 62 64 64 63 61 58 54 51 48 44 39 37 36 37 39 41 42 44 45 45 45 47 47 46 44 43 45 46 46 45 44 43 42 40 39 39 40 41 43 44 44 45 46 46 47 48 49 49 50 50 50 50 50
56 57 57 58 58 59 60 59 59 60 60 58 57 56 55 55 54 54 55 57 60 62 63 63 62 60 57 53 48 45 43 38 36 35 36 39 41 41 42 43 43 43 44 44 43 42 42 45 45 44 42 41 41 39 37 37 38 39 40 41 41 42 42 43 44 44 45 47 47 48 48 47 47 48
51 52 52 53 53 54 56 56 57 58 58 57 56 56 55 52 52 54 54 56 59 61 61 61 61 59 56 51 45 43 40 36 34 35 37 40 41 40 41 41 40 39 40 42 42 40 40 44 44 40 39 39 38 36 35 35 36 37 38 38 39 39 40 40 41 42 43 44 45 46 45 45 45 46
48 48 48 48 48 48 49 52 53 54 55 55 54 56 55 50 50 54 54 54 58 59 59 59 60 58 54 48 42 38 36 34 35 37 39 40 40 39 39 39 37 37 39 42 42 38 37 42 42 37 35 36 34 33 34 34 34 34 35 36 36 37 38 38 39 40 41 42 43 43 43 43 43 44
45 45 45 45 44 42 43 46 48 49 52 53 53 55 55 50 49 52 52 53 56 58 58 58 58 55 50 45 38 34 34 36 36 37 38 38 38 38 37 37 37 38 40 42 40 36 36 40 38 33 33 33 32 32 32 31 31 32 32 33 34 35 36 36 37 38 39 40 40 40 40 40 41 42
43 43 43 42 41 38 38 40 43 45 49 51 51 53 53 50 49 50 50 52 56 57 57 56 55 52 48 44 39 35 35 37 36 36 37 38 37 37 36 36 37 37 38 39 37 34 35 37 34 30 30 31 30 30 30 29 30 30 30 31 32 33 34 35 36 37 37 38 38 38 38 38 39 40
41 40 40 39 38 36 34 35 38 43 46 47 49 51 49 47 47 48 48 51 54 55 54 52 51 49 47 44 40 37 35 36 35 36 38 38 37 35 35 34 35 35 36 36 34 33 34 33 30 29 29 29 28 28 28 28 28 28 29 30 30 31 32 33 34 35 36 36 36 35 35 36 37 38
39 37 35 36 35 33 32 31 36 41 41 42 46 47 45 43 44 45 46 49 51 51 50 49 47 47 46 42 38 36 35 36 36 38 38 36 34 33 33 33 33 34 34 33 32 32 32 29 28 28 28 27 27 27 27 26 26 26 28 28 29 30 31 32 33 33 33 33 32 32 32 33 34 36
36 32 30 31 31 31 29 29 35 38 38 40 42 42 41 41 42 43 45 48 48 47 46 46 46 45 44 41 37 35 36 37 37 37 35 32 32 33 32 32 32 33 32 32 32 31 29 27 27 27 26 26 26 26 25 24 24 25 26 27 28 28 29 30 30 31 30 30 30 30 30 31 32 34
30 27 26 26 28 28 26 27 32 33 34 36 38 38 39 40 41 41 43 46 45 43 41 42 44 44 41 38 35 35 37 38 37 35 33 33 33 32 31 32 32 31 31 31 31 29 27 26 26 26 25 25 25 24 23 22 23 24 25 25 26 26 27 27 28 28 28 28 28 28 28 29 31 32
24 21 21 23 24 23 23 27 27 28 30 32 34 36 38 38 39 39 41 42 41 39 38 39 41 42 38 34 34 36 38 38 36 34 34 33 32 31 32 32 29 28 29 29 29 28 26 25 25 25 24 23 23 22 21 21 22 23 23 23 24 24 25 25 25 25 26 26 27 27 27 28 29 31
22 19 19 19 19 21 25 26 25 26 27 28 32 35 35 34 35 37 39 38 36 35 36 38 39 39 35 32 34 36 37 37 34 33 32 32 31 32 32 29 27 27 28 28 27 27 25 24 24 23 23 22 21 20 20 20 20 21 21 21 22 22 23 23 23 23 24 25 25 26 26 27 29 30
21 19 19 14 20 25 25 26 26 26 24 22 27 32 31 30 33 36 35 34 33 34 35 37 37 35 33 33 35 36 36 34 31 30 31 31 31 32 30 27 26 27 27 27 27 26 24 24 23 22 22 21 20 19 19 19 18 19 19 20 20 21 21 21 22 22 23 23 24 24 25 27 27 29
21 19 15 14 25 25 25 28 27 23 18 17 23 29 30 31 33 33 32 32 33 33 33 34 34 33 34 36 37 35 33 31 29 29 30 30 31 30 28 26 27 27 26 26 26 25 24 24 23 22 21 20 19 18 18 17 17 17 17 18 19 20 20 20 21 21 22 22 23 24 25 25 26 26
22 19 10 20 28 25 26 28 26 22 16 15 22 27 29 31 32 31 30 30 31 31 31 31 31 32 35 36 34 31 30 28 27 28 29 30 30 28 27 26 26 26 25 25 25 24 24 23 22 21 20 19 18 17 16 16 16 16 17 18 18 18 18 19 19 19 20 21 21 22 23 23 23 24
20 16 9 24 27 24 27 27 26 24 18 15 20 23 25 28 29 28 28 28 28 29 29 29 30 31 33 32 30 28 28 28 28 29 30 30 30 28 27 26 26 25 24 24 25 24 23 22 21 20 19 18 17 16 15 15 15 15 15 16 16 16 16 17 17 16 16 17 18 20 20 20 21 23
12 9 14 27 26 24 27 26 26 26 21 17 20 21 21 24 27 27 26 26 26 27 26 26 28 29 30 30 29 29 29 29 30 30 29 29 28 27 27 26 25 25 24 24 24 23 22 22 21 20 18 17 17 15 14 14 14 14 14 14 14 13 13 14 14 13 13 13 14 16 16 16 17 19
8 2 22 31 25 24 27 25 26 27 25 23 23 21 21 23 24 23 23 23 23 23 23 24 27 29 31 31 30 30 30 30 29 28 27 27 27 27 26 25 24 24 23 23 23 23 23 22 21 20 18 17 16 14 13 13 13 13 14 13 11 9 9 10 11 10 9 9 10 11 12 11 12 13
8 8 28 30 24 24 26 26 27 28 26 25 23 22 22 22 21 20 19 19 19 20 21 24 29 31 32 30 30 30 30 29 28 27 27 27 27 27 26 24 24 24 23 22 23 24 23 23 21 20 19 18 16 14 13 14 13 13 12 11 8 7 6 7 7 6 6 6 7 7 6 5 5 6
7 13 29 27 22 24 24 23 23 22 21 22 23 24 24 23 21 19 17 16 16 18 21 25 29 30 30 29 29 30 29 28 27 27 28 28 28 27 25 23 24 23 22 22 24 24 24 23 22 21 19 18 17 15 14 14 13 12 10 8 6 5 4 4 4 3 4 4 4 4 4 4 4 3
8 16 25 23 20 21 19 18 18 17 17 20 22 24 25 23 21 19 15 13 15 18 21 25 27 28 28 28 28 28 27 27 28 28 28 28 27 25 23 23 23 23 22 24 26 26 25 24 22 21 20 19 17 16 15 14 13 12 10 7 5 4 3 3 2 3 3 3 3 4 6 9 8 7
10 16 21 19 17 17 16 15 15 15 15 16 19 23 24 24 22 18 14 14 17 20 23 25 25 26 26 26 26 26 26 27 28 28 28 28 26 23 22 22 22 22 23 25 27 26 26 25 23 22 21 19 18 16 15 14 14 13 10 8 6 4 4 3 2 3 3 3 3 2 8 13 12 11
12 15 18 16 13 13 13 14 13 12 11 13 16 21 24 23 21 17 14 16 19 20 22 23 22 22 24 24 25 26 27 28 28 28 27 26 24 23 23 22 22 22 24 26 27 26 25 25 23 23 22 20 18 17 16 15 15 13 11 9 8 6 5 3 2 2 3 2 3 1 5 12 14 13
13 13 15 15 12 10 10 10 10 9 9 11 15 20 22 23 20 17 16 18 19 19 20 21 20 21 23 24 25 26 27 27 27 26 25 25 24 23 23 22 21 23 25 26 26 25 25 25 24 23 22 20 19 18 17 16 15 14 13 12 10 8 5 3 1 1 1 1 1 2 1 6 12 14
12 13 13 12 12 11 10 9 8 9 10 11 14 18 22 23 21 18 17 19 19 19 20 21 21 22 23 23 24 25 26 26 25 25 25 24 24 23 22 21 21 23 25 25 25 25 25 25 24 23 22 21 19 18 17 16 16 14 14 14 12 9 6 3 1 1 1 1 1 0 2 3 4 8
10 11 11 10 11 12 12 11 11 12 12 13 15 17 19 23 23 20 19 20 21 20 21 22 23 22 22 22 22 23 23 23 24 24 24 24 23 22 21 20 21 23 24 24 24 24 24 24 23 23 22 21 20 19 18 17 16 15 14 14 13 10 7 5 2 1 1 0 0 2 1 3 4 2
9 9 10 10 11 12 11 10 9 10 11 14 18 16 15 20 24 23 21 21 22 21 22 23 23 22 22 22 22 22 21 21 22 22 23 23 23 22 21 20 21 21 22 23 23 22 22 22 22 23 23 22 20 20 19 18 17 15 14 14 13 11 8 6 3 1 1 1 1 2 2 3 4 4
10 10 10 11 10 10 9 8 8 8 9 14 18 17 15 19 24 24 22 23 23 22 23 23 22 22 22 22 21 21 21 21 21 21 22 23 23 22 22 21 20 21 21 22 21 21 21 22 23 24 24 22 21 20 19 18 17 16 15 14 13 11 9 7 5 3 3 1 1 2 4 5 5 6
10 10 10 10 10 9 8 7 8 9 10 12 16 17 17 20 24 24 24 24 24 23 23 23 22 22 22 21 21 20 20 20 20 20 21 22 22 22 22 21 21 20 21 21 20 20 21 22 23 24 23 22 20 19 18 18 17 17 16 15 13 11 9 8 6 5 4 2 1 3 4 5 5 6
9 9 9 9 9 8 7 7 8 9 10 13 15 17 19 22 24 24 25 25 24 23 23 23 22 22 22 22 22 21 19 19 19 18 19 20 20 21 21 21 20 20 20 20 21 21 21 21 22 22 22 20 19 19 19 18 18 17 17 16 14 12 10 9 8 7 6 4 2 2 4 4 5 7
8 9 9 9 9 9 8 8 8 8 10 15 18 18 20 23 25 24 25 25 24 23 23 22 22 23 23 22 22 21 19 18 17 17 17 18 18 19 20 20 21 20 20 20 20 21 21 21 22 22 21 20 21 21 20 19 18 18 17 16 15 13 12 11 10 9 7 6 4 3 3 4 5 7
2 4 7 9 10 10 9 9 8 7 10 17 21 21 21 25 26 25 26 26 25 24 24 23 23 23 22 22 21 20 19 18 17 16 16 16 17 18 19 20 20 20 19 19 19 20 22 23 23 22 22 21 21 21 20 20 19 19 18 17 16 14 14 13 12 10 9 7 6 5 4 4 5 6
Wind_Direction
270 269 268 267 267 266 265 265 265 265 264 263 263 263 264 264 265 266 265 264 263 261 259 259 259 258 258 256 254 252 251 251 250 249 247 246 244 243 243 243 243 243 245 246 247 248 248 249 249 250 251 251 252 252 252 252 252 252 252 252 252 253 253 254 255 256 257 257 258 259 260 260 260 259
270 269 268 267 266 265 265 264 264 263 262 261 260 261 261 261 262 264 266 264 263 262 261 260 259 258 257 257 256 254 251 250 250 248 247 246 244 244 243 243 243 243 244 246 247 248 249 249 250 251 252 253 253 253 252 252 252 252 253 253 253 254 254 255 255 256 257 258 258 259 259 260 260 260
269 268 267 266 266 265 264 263 262 262 261 260 258 258 259 259 259 261 265 265 263 263 263 262 261 259 257 256 255 254 252 251 250 249 247 246 244 244 244 243 243 244 245 246 247 248 249 250 250 251 252 253 253 253 252 252 252 253 253 254 254 254 255 255 256 257 257 258 258 259 259 259 260 260
267 267 266 265 265 265 264 262 261 260 259 258 256 255 255 256 256 257 260 263 264 263 263 263 263 261 258 256 254 253 253 251 251 250 247 246 244 243 243 243 243 244 245 246 248 249 249 250 250 251 251 251 251 251 252 252 252 252 253 254 254 255 255 256 257 257 257 257 258 258 259 259 260 260
266 265 265 264 264 263 263 262 260 259 258 257 255 253 252 252 253 254 256 260 263 264 264 264 264 264 262 259 255 253 252 251 251 250 248 246 244 243 243 242 243 243 245 246 248 250 251 251 251 250 249 249 250 250 251 251 252 252 253 253 254 255 256 256 257 257 257 257 258 258 258 259 259 259
266 265 264 263 263 262 261 261 260 258 257 255 254 253 251 250 250 251 252 257 261 262 263 264 265 266 266 263 259 254 252 251 251 250 248 246 245 243 242 242 242 243 244 246 248 250 251 251 251 250 249 249 249 250 251 251 251 251 252 253 254 255 256 256 256 257 257 256 256 257 257 257 258 258
269 266 264 262 261 261 261 260 259 258 256 254 253 252 250 248 248 248 248 252 256 259 262 263 264 266 267 266 262 258 254 252 251 249 248 246 245 244 243 242 242 242 244 245 247 248 250 250 250 249 248 248 249 249 250 250 251 251 252 253 255 255 256 256 256 256 256 256 256 256 256 256 256 257
269 268 265 262 260 260 259 259 258 257 256 254 252 251 250 248 246 246 246 247 251 256 259 261 263 264 266 267 264 260 258 255 252 250 248 246 246 245 244 243 242 243 244 245 246 248 249 250 249 248 248 248 249 249 250 250 251 251 252 254 255 256 256 256 256 255 255 255 255 255 255 255 255 255
270 268 266 264 261 260 259 258 258 258 257 255 252 250 249 248 245 244 244 244 247 252 256 258 261 262 263 265 264 261 260 258 255 252 248 246 245 245 244 243 243 244 245 246 247 248 249 249 249 248 248 248 248 249 250 250 251 252 253 254 255 257 257 257 256 255 255 255 255 255 255 254 254 254
270 268 268 266 263 261 260 259 258 258 258 256 253 248 247 247 244 242 241 242 244 249 253 256 258 259 260 262 263 262 261 260 257 254 250 246 244 244 244 244 244 244 245 246 247 248 248 249 249 249 248 248 248 249 250 251 252 253 254 256 257 257 258 257 257 256 255 255 255 255 254 254 254 253
270 269 268 267 265 263 261 260 259 258 257 256 253 249 245 245 243 240 239 240 242 246 249 252 255 257 259 261 262 262 262 260 256 253 250 246 244 244 244 244 244 244 245 245 246 247 248 248 249 249 249 249 249 250 250 251 252 254 255 256 257 258 258 257 257 256 256 255 255 255 254 253 253 253
271 269 267 266 265 264 262 260 258 257 256 253 251 248 244 242 241 239 237 237 239 243 246 249 252 255 257 259 260 260 261 260 256 254 253 249 245 244 243 242 242 243 243 244 245 246 247 248 249 249 249 249 249 250 251 252 253 254 255 256 257 257 257 257 257 256 256 255 255 255 254 253 252 252
270 268 267 265 264 263 261 259 257 255 253 249 246 245 243 240 238 236 234 235 238 240 243 246 249 253 256 258 259 259 261 261 258 256 254 249 244 242 241 240 241 241 242 243 244 244 245 247 248 248 248 249 250 250 251 252 253 253 254 255 256 256 257 257 257 256 256 255 255 254 253 252 252 252
271 269 267 265 263 262 260 258 255 253 252 248 244 242 241 239 235 231 231 233 235 238 240 244 248 252 255 258 259 260 262 261 256 252 249 246 243 241 240 239 239 241 242 242 242 243 245 246 246 246 247 248 249 250 251 252 252 253 253 254 255 256 256 256 256 256 255 255 255 254 253 252 252 252
272 270 268 265 263 261 259 256 253 251 250 247 242 238 237 238 232 227 228 232 233 235 239 242 247 251 254 258 260 261 261 258 253 249 246 243 241 240 239 238 239 241 242 242 241 242 245 246 245 245 246 247 248 249 251 251 252 253 253 254 255 255 256 256 256 255 255 254 253 252 251 251 252 252
275 273 270 267 264 260 258 254 250 247 245 243 239 235 234 236 230 224 225 229 231 234 237 242 246 251 254 258 260 261 259 255 250 246 243 241 240 239 239 239 240 242 243 242 241 241 244 245 246 245 245 246 247 249 250 250 251 253 253 254 254 255 255 255 255 254 253 252 251 250 250 250 251 252
280 277 274 271 267 262 258 253 248 244 240 237 235 231 230 232 227 222 224 228 229 232 236 240 245 250 253 257 261 261 256 248 244 242 240 239 239 239 240 241 243 243 241 241 241 241 242 244 245 244 244 245 247 248 250 250 251 252 253 253 254 254 254 253 252 251 249 248 248 248 249 250 251 252
286 280 276 274 270 264 257 251 245 239 234 231 231 229 228 229 224 221 224 227 228 230 234 238 243 248 251 255 260 260 250 241 240 240 239 238 239 240 241 242 241 240 239 240 242 241 241 243 243 242 243 245 246 248 250 251 251 251 252 252 252 252 251 250 249 248 247 247 247 248 249 250 251 252
291 284 278 275 273 266 257 249 241 232 227 226 227 228 228 226 222 220 223 226 227 230 234 239 244 248 251 254 259 258 246 237 237 238 237 237 237 238 239 238 238 239 239 241 242 241 240 241 241 241 243 245 247 248 249 250 250 250 250 250 250 249 248 247 246 246 246 246 247 248 248 250 251 253
295 287 279 275 273 266 257 246 233 225 223 224 226 227 226 223 221 220 221 223 227 232 235 239 244 248 251 254 257 254 242 234 235 235 234 234 235 236 238 239 239 239 239 240 240 239 238 238 239 241 243 245 247 248 248 248 248 249 248 248 247 246 246 245 245 245 246 246 247 248 249 251 253 255
300 291 281 276 272 265 255 239 221 216 218 221 225 227 224 219 220 220 218 219 225 231 234 237 242 248 251 254 255 249 236 230 231 232 232 233 235 237 239 239 239 238 238 238 237 236 236 236 237 240 242 244 245 245 246 247 247 247 246 245 245 245 244 244 245 245 246 247 248 249 250 253 255 257
301 292 283 277 270 262 249 226 211 210 214 219 225 226 220 217 218 216 213 217 223 229 234 238 242 246 251 254 252 242 230 227 229 230 231 232 234 236 237 236 236 235 236 236 235 235 235 235 237 239 240 241 243 244 244 245 244 245 244 244 244 245 245 245 246 246 247 247 248 250 252 254 257 259
301 292 284 278 269 258 238 211 203 207 213 218 224 220 214 216 217 212 211 217 223 229 236 242 245 248 251 252 247 234 225 225 227 227 228 229 231 233 233 232 232 233 235 235 234 234 235 235 236 238 237 238 240 242 243 243 243 244 245 245 246 246 246 246 246 246 247 247 248 250 252 256 259 261
302 296 288 279 265 244 214 197 199 204 206 214 220 215 211 214 214 209 212 219 225 231 237 243 249 252 252 247 236 226 222 224 225 225 226 228 230 231 230 229 230 231 233 234 233 234 234 234 235 236 236 236 238 240 241 241 243 245 245 246 246 245 246 245 246 247 248 249 251 252 254 257 260 263
303 305 300 279 243 209 191 189 196 200 201 212 218 213 210 212 210 209 214 220 225 232 239 244 248 249 245 234 224 220 222 223 222 223 225 227 228 229 227 226 227 229 232 232 233 233 232 232 233 234 234 234 235 236 238 238 241 243 243 244 244 244 246 248 250 253 254 254 256 256 257 259 261 264
300 308 305 260 200 182 180 184 191 195 199 212 217 212 208 207 207 210 216 221 228 235 240 243 243 239 231 222 217 217 220 221 219 220 224 225 225 226 224 222 223 226 229 230 231 232 230 229 229 230 229 230 230 231 233 235 237 239 241 244 245 246 250 254 256 258 259 260 261 262 263 264 264 265
297 309 297 214 180 173 175 180 185 187 191 205 210 204 201 204 208 213 218 225 232 237 239 238 235 229 221 216 214 214 216 217 217 219 222 222 222 222 220 219 221 224 227 228 229 229 228 225 224 224 224 224 224 225 228 231 234 238 241 245 249 252 255 258 260 262 263 265 266 266 267 267 266 264
292 307 277 188 175 171 173 178 183 180 178 195 202 198 200 206 210 215 221 228 234 237 237 235 230 223 217 214 212 211 212 214 216 218 219 218 217 217 216 216 220 223 225 226 226 226 224 221 219 218 218 218 219 220 223 228 233 239 243 248 253 257 260 262 264 267 269 270 270 270 269 267 264 259
290 302 234 182 175 172 173 179 186 182 173 181 192 195 204 212 215 219 224 230 234 236 237 234 226 218 213 211 209 209 211 214 213 214 214 213 212 213 212 214 218 221 223 223 222 221 218 215 213 211 211 213 215 216 219 225 232 238 243 249 254 259 264 267 270 273 275 274 273 270 268 265 258 254
301 297 197 180 176 175 175 180 189 189 183 177 181 189 202 214 221 224 226 231 235 237 238 231 219 211 207 206 205 206 210 212 210 209 210 210 210 211 212 213 217 220 220 220 220 216 211 207 206 205 206 210 211 211 214 221 229 236 242 248 253 258 266 271 275 279 279 276 273 269 265 260 252 249
339 239 180 176 175 176 178 183 188 192 192 190 186 187 197 213 224 224 224 230 235 236 234 221 209 204 202 201 203 206 208 208 205 203 204 205 207 209 210 212 215 218 217 216 215 211 205 202 201 200 201 207 209 207 211 219 226 234 241 246 248 251 261 272 279 286 287 283 279 272 264 256 247 244
12 166 173 172 173 176 181 186 187 188 193 197 198 198 200 211 222 223 223 229 230 228 222 208 201 200 199 199 203 206 205 203 199 197 199 201 203 206 208 209 213 215 213 211 210 206 199 196 197 197 199 204 205 204 211 219 227 233 238 243 244 238 248 267 276 288 302 302 291 277 262 248 239 236
46 157 170 171 174 178 182 186 187 188 195 202 207 208 207 211 219 222 225 227 223 217 210 201 198 197 197 199 203 203 199 196 193 192 195 198 202 204 205 207 210 211 208 205 204 200 194 193 194 195 198 202 202 203 209 216 224 230 231 236 240 236 248 272 283 303 323 321 291 262 219 181 182 200
89 149 166 169 173 179 185 190 192 196 204 207 208 209 210 215 221 224 224 218 208 202 197 195 196 196 196 199 199 196 192 189 189 191 194 198 202 204 203 205 208 206 201 199 198 195 191 192 193 194 197 200 200 203 207 212 220 226 223 222 227 223 232 268 312 336 345 349 311 248 193 172 170 179
111 146 162 164 167 174 181 190 196 201 207 208 206 207 211 216 222 227 223 207 198 194 191 192 193 194 194 194 191 189 187 187 189 193 195 198 200 201 201 204 205 199 195 196 195 192 190 191 193 194 197 200 200 203 206 210 217 222 217 211 212 210 215 240 292 324 335 354 346 253 194 183 179 175
114 144 161 162 164 174 185 197 208 213 214 211 204 203 209 215 221 224 215 201 197 194 188 187 188 187 185 184 184 185 186 187 190 194 196 198 199 198 199 202 199 194 193 194 193 191 190 192 193 194 197 200 201 204 207 209 215 218 211 202 204 211 217 227 260 309 316 331 357 359 194 197 197 191
117 141 162 167 170 182 197 214 228 228 224 218 208 204 208 212 216 216 205 195 194 190 182 179 181 180 179 180 181 183 185 188 191 195 196 198 199 198 198 198 195 192 193 194 191 190 190 193 195 196 198 201 202 205 208 209 213 215 206 198 202 208 215 225 255 345 334 297 327 25 126 193 206 211
126 137 155 169 177 183 183 184 189 194 199 206 205 204 206 208 208 207 198 189 186 183 177 176 177 177 177 178 180 183 186 189 192 195 197 198 199 198 196 194 192 192 193 193 191 189 191 194 196 197 201 203 204 207 209 208 211 211 204 200 202 206 218 247 300 56 48 295 259 251 77 105 171 209
133 137 146 156 165 170 165 160 169 181 188 192 192 194 201 205 202 197 189 183 180 177 174 174 175 176 176 177 180 184 188 191 193 195 195 195 196 196 194 190 189 190 192 193 192 191 192 195 197 199 204 205 205 207 208 208 209 209 204 203 206 208 224 256 288 78 100 13 153 187 151 81 83 129
141 145 154 157 157 162 166 168 173 179 185 188 185 183 191 198 193 185 178 175 173 171 171 172 173 175 176 179 182 186 189 191 193 192 191 191 192 193 191 188 185 187 190 193 194 193 193 195 198 202 206 208 207 208 208 207 208 208 206 206 208 210 220 242 253 185 157 121 98 145 133 85 68 72
154 157 165 170 170 172 178 183 181 180 187 191 187 183 184 186 182 175 169 167 167 167 168 169 171 173 176 180 182 184 186 187 187 186 186 188 190 192 191 187 184 184 187 190 192 192 192 194 198 204 208 209 209 210 209 207 207 209 210 210 210 209 212 225 229 202 180 178 63 96 103 85 67 71
171 173 176 179 180 182 185 188 188 190 192 189 186 186 183 178 174 169 164 163 164 164 165 167 169 172 174 175 175 175 177 179 180 181 184 188 191 193 193 189 186 187 187 184 184 188 192 193 198 204 208 208 208 210 211 209 209 211 212 214 214 210 208 214 218 205 189 184 91 80 90 85 71 72
189 189 188 187 186 188 191 190 189 191 187 179 178 182 180 174 169 166 162 162 162 162 163 166 169 169 168 167 165 164 166 169 171 175 180 187 191 195 196 194 191 193 192 184 178 182 188 191 196 201 204 203 204 208 210 210 211 214 215 217 218 213 206 207 213 206 193 182 158 100 82 79 76 78
209 208 204 200 195 194 194 191 186 186 179 170 169 174 177 173 168 164 162 161 161 160 161 165 167 165 163 162 160 159 160 163 166 169 175 182 188 191 194 197 197 198 198 190 181 182 187 190 194 198 200 198 200 204 206 207 210 214 216 217 217 211 204 205 209 206 197 186 170 147 114 93 87 87
205 214 213 210 204 198 195 191 185 182 174 167 166 171 176 174 169 166 163 162 161 159 159 161 161 160 159 159 159 161 163 164 166 171 176 181 186 188 191 195 199 202 202 197 190 188 190 192 194 198 199 199 199 202 204 206 208 212 215 216 214 208 204 204 207 205 198 190 178 162 143 122 106 100
Height
2883 2881 2881 2881 2881 2883 2883 2882 2883 2883 2884 2884 2885 2884 2885 2885 2883 2883 2884 2886 2893 2900 2900 2901 2903 2903 2903 2904 2905 2907 2909 2911 2912 2912 2914 2916 2918 2920 2921 2923 2926 2928 2930 2931 2933 2935 2937 2939 2941 2943 2945 2947 2949 2950 2952 2953 2955 2957 2958 2960 2962 2963 2964 2966 2967 2968 2970 2971 2973 2976 2978 2980 2982 2984
2871 2870 2870 2871 2870 2872 2873 2873 2873 2874 2874 2875 2876 2876 2877 2877 2876 2876 2876 2876 2883 2889 2890 2893 2896 2896 2896 2896 2897 2898 2900 2903 2904 2904 2907 2908 2910 2912 2913 2916 2918 2920 2922 2924 2926 2928 2929 2931 2933 2935 2937 2939 2940 2942 2944 2945 2947 2948 2950 2952 2954 2955 2957 2958 2959 2961 2962 2964 2966 2969 2970 2972 2974 2976
2860 2859 2859 2860 2860 2862 2862 2863 2863 2864 2864 2865 2867 2867 2868 2869 2869 2870 2869 2867 2873 2879 2879 2883 2887 2887 2888 2888 2888 2890 2892 2894 2895 2896 2899 2901 2903 2904 2905 2908 2911 2913 2915 2916 2918 2920 2922 2924 2926 2928 2930 2931 2933 2934 2936 2938 2939 2941 2942 2944 2946 2947 2949 2950 2952 2953 2955 2957 2959 2961 2963 2964 2966 2969
2849 2848 2848 2849 2850 2851 2851 2852 2853 2854 2854 2855 2857 2858 2860 2861 2862 2864 2862 2859 2864 2869 2870 2874 2877 2878 2880 2881 2881 2883 2884 2886 2887 2888 2892 2894 2895 2896 2898 2902 2904 2905 2908 2909 2911 2913 2915 2917 2919 2921 2923 2924 2926 2927 2928 2930 2931 2933 2935 2936 2938 2939 2941 2943 2944 2946 2948 2950 2952 2953 2955 2957 2959 2961
2838 2837 2837 2838 2840 2841 2840 2841 2843 2844 2845 2846 2847 2848 2850 2852 2854 2856 2855 2853 2856 2859 2861 2865 2867 2868 2871 2873 2874 2876 2876 2877 2879 2881 2884 2886 2887 2889 2892 2894 2896 2898 2901 2902 2905 2906 2908 2910 2913 2915 2916 2918 2919 2920 2922 2923 2924 2926 2927 2928 2930 2932 2934 2936 2937 2939 2941 2943 2945 2946 2948 2949 2951 2952
2827 2826 2826 2827 2830 2830 2828 2830 2832 2834 2835 2836 2837 2838 2840 2842 2845 2848 2849 2848 2849 2850 2852 2856 2858 2859 2862 2864 2866 2868 2868 2870 2871 2873 2876 2878 2880 2882 2884 2886 2889 2892 2894 2896 2898 2900 2902 2904 2906 2908 2910 2911 2912 2914 2915 2916 2917 2918 2919 2921 2922 2924 2926 2928 2930 2932 2933 2935 2937 2939 2940 2942 2943 2944
2815 2814 2815 2817 2819 2819 2817 2818 2821 2823 2825 2826 2827 2828 2830 2833 2836 2840 2841 2842 2842 2843 2844 2847 2849 2851 2853 2855 2858 2859 2861 2862 2863 2865 2868 2870 2872 2875 2877 2879 2882 2885 2887 2889 2891 2893 2895 2897 2900 2902 2903 2904 2906 2907 2908 2909 2910 2911 2912 2913 2915 2916 2918 2921 2922 2924 2926 2928 2930 2931 2933 2935 2936 2937
2802 2802 2803 2805 2807 2807 2806 2807 2810 2811 2813 2816 2817 2819 2821 2823 2827 2830 2833 2834 2835 2836 2837 2839 2841 2844 2845 2847 2849 2851 2853 2855 2856 2858 2860 2862 2865 2867 2870 2872 2875 2877 2880 2882 2884 2886 2888 2891 2894 2895 2897 2898 2899 2900 2901 2902 2903 2904 2905 2906 2907 2909 2911 2913 2915 2917 2919 2920 2922 2924 2926 2927 2928 2930
2791 2790 2791 2793 2795 2795 2795 2797 2799 2801 2803 2805 2807 2810 2812 2814 2818 2821 2824 2826 2828 2829 2830 2831 2834 2837 2838 2839 2841 2844 2846 2848 2850 2851 2853 2855 2857 2860 2863 2865 2868 2870 2872 2875 2877 2879 2881 2884 2887 2888 2890 2891 2892 2893 2894 2895 2896 2896 2897 2899 2900 2902 2904 2906 2908 2910 2911 2913 2915 2916 2918 2920 2921 2922
2780 2779 2779 2781 2783 2784 2785 2787 2789 2791 2793 2795 2797 2799 2803 2805 2809 2812 2814 2818 2821 2822 2823 2825 2826 2828 2830 2832 2834 2836 2839 2841 2843 2845 2846 2848 2850 2852 2855 2858 2861 2864 2865 2868 2870 2872 2875 2878 2880 2881 2883 2884 2885 2887 2887 2888 2889 2889 2891 2892 2894 2896 2897 2899 2901 2902 2904 2906 2908 2909 2911 2913 2914 2915
2770 2770 2770 2770 2772 2773 2775 2777 2779 2781 2783 2785 2787 2789 2793 2796 2799 2802 2805 2809 2812 2814 2815 2817 2819 2821 2823 2825 2827 2830 2833 2834 2836 2838 2839 2841 2843 2846 2849 2852 2855 2857 2858 2861 2863 2866 2869 2871 2873 2874 2875 2877 2878 2880 2881 2881 2882 2883 2884 2886 2888 2889 2891 2892 2894 2896 2897 2899 2901 2903 2904 2906 2907 2908
2759 2759 2759 2760 2761 2762 2764 2767 2769 2771 2773 2775 2777 2780 2784 2787 2789 2792 2796 2800 2803 2805 2808 2810 2811 2814 2816 2818 2820 2823 2826 2827 2830 2833 2834 2836 2838 2840 2842 2845 2848 2849 2851 2854 2857 2860 2863 2865 2866 2867 2868 2870 2872 2873 2874 2875 2875 2877 2878 2880 2881 2882 2884 2886 2887 2889 2891 2892 2894 2896 2897 2899 2900 2901
2749 2748 2748 2749 2750 2751 2753 2756 2758 2759 2762 2764 2766 2770 2774 2777 2780 2783 2787 2791 2794 2797 2800 2802 2804 2806 2808 2811 2813 2816 2819 2822 2825 2828 2829 2830 2832 2834 2835 2838 2841 2843 2845 2848 2851 2854 2856 2858 2859 2861 2862 2864 2865 2866 2867 2868 2869 2871 2872 2873 2875 2876 2878 2879 2881 2882 2884 2886 2887 2889 2891 2892 2893 2894
2738 2737 2737 2738 2739 2740 2741 2744 2747 2748 2751 2754 2756 2760 2764 2767 2771 2775 2779 2782 2785 2789 2792 2794 2797 2799 2802 2805 2808 2811 2814 2817 2819 2821 2823 2824 2825 2827 2829 2831 2835 2837 2839 2842 2845 2848 2850 2851 2852 2854 2856 2858 2859 2860 2861 2862 2863 2864 2866 2867 2869 2870 2871 2873 2874 2876 2878 2879 2881 2883 2884 2885 2886 2887
2726 2725 2725 2726 2727 2728 2730 2732 2735 2737 2740 2743 2747 2751 2755 2758 2763 2767 2771 2774 2778 2781 2784 2787 2790 2793 2796 2800 2803 2806 2808 2811 2813 2815 2817 2818 2819 2821 2823 2825 2829 2832 2833 2836 2839 2842 2844 2844 2846 2849 2851 2852 2853 2854 2856 2856 2857 2859 2860 2862 2863 2864 2865 2867 2868 2870 2872 2873 2875 2876 2877 2878 2879 2880
2715 2714 2714 2714 2716 2717 2719 2720 2723 2726 2729 2733 2738 2743 2746 2750 2755 2760 2764 2767 2771 2774 2778 2781 2783 2787 2791 2795 2798 2800 2803 2806 2808 2809 2811 2811 2813 2816 2818 2820 2824 2827 2829 2830 2832 2836 2838 2838 2840 2844 2846 2846 2848 2849 2850 2851 2852 2853 2855 2856 2857 2858 2860 2861 2863 2865 2866 2868 2869 2870 2871 2872 2872 2873
2705 2704 2704 2704 2705 2707 2709 2710 2712 2716 2720 2724 2729 2734 2738 2742 2747 2753 2757 2761 2764 2768 2772 2774 2777 2781 2786 2789 2793 2796 2798 2800 2801 2802 2804 2806 2808 2811 2813 2816 2820 2822 2823 2823 2826 2831 2833 2832 2835 2839 2841 2841 2842 2843 2844 2845 2847 2848 2849 2850 2852 2853 2854 2856 2858 2859 2861 2862 2863 2864 2865 2865 2866 2867
2697 2696 2695 2694 2696 2698 2700 2701 2703 2707 2711 2716 2721 2726 2731 2735 2740 2746 2751 2754 2757 2761 2764 2767 2770 2776 2782 2785 2788 2790 2791 2792 2794 2797 2799 2802 2804 2806 2809 2811 2814 2815 2816 2817 2821 2826 2828 2828 2831 2835 2836 2836 2837 2838 2839 2841 2842 2843 2844 2845 2847 2848 2850 2851 2852 2854 2855 2856 2857 2858 2859 2860 2860 2861
2691 2689 2688 2687 2688 2690 2692 2694 2697 2700 2704 2709 2714 2719 2725 2729 2734 2739 2744 2748 2750 2754 2758 2762 2767 2773 2777 2780 2782 2784 2785 2786 2789 2793 2795 2797 2799 2801 2803 2806 2808 2810 2811 2813 2817 2822 2823 2824 2827 2830 2830 2831 2832 2833 2834 2836 2837 2838 2840 2841 2842 2844 2845 2846 2848 2849 2850 2851 2852 2852 2853 2854 2855 2856
2686 2683 2681 2681 2681 2683 2685 2688 2692 2696 2701 2705 2709 2714 2719 2724 2728 2733 2739 2743 2746 2750 2755 2760 2764 2768 2772 2774 2776 2778 2779 2781 2785 2787 2789 2791 2794 2796 2799 2801 2804 2805 2807 2810 2814 2817 2818 2821 2824 2825 2825 2826 2827 2828 2830 2831 2833 2834 2835 2836 2838 2839 2840 2842 2843 2844 2845 2846 2846 2847 2848 2849 2849 2850
2681 2678 2676 2675 2675 2676 2679 2682 2687 2693 2698 2701 2705 2709 2714 2719 2723 2728 2734 2739 2742 2746 2751 2755 2760 2763 2765 2768 2770 2772 2774 2777 2779 2781 2783 2787 2791 2793 2795 2797 2799 2801 2803 2807 2810 2812 2815 2818 2820 2820 2821 2822 2823 2824 2826 2828 2829 2830 2831 2832 2834 2835 2836 2837 2838 2839 2840 2841 2842 2843 2843 2844 2844 2844
2676 2673 2671 2671 2670 2671 2673 2677 2683 2689 2694 2698 2701 2705 2710 2715 2718 2723 2729 2734 2738 2741 2745 2750 2754 2757 2760 2762 2764 2766 2768 2771 2773 2776 2780 2784 2786 2788 2790 2793 2795 2797 2800 2803 2806 2809 2811 2814 2815 2816 2817 2818 2819 2820 2822 2824 2825 2826 2827 2829 2830 2831 2832 2833 2834 2835 2836 2837 2837 2838 2839 2839 2839 2839
2671 2668 2667 2667 2666 2667 2670 2675 2681 2686 2691 2695 2698 2702 2706 2710 2714 2719 2725 2729 2734 2738 2741 2744 2748 2751 2754 2756 2758 2760 2763 2766 2769 2773 2777 2779 2781 2784 2786 2788 2791 2794 2797 2800 2803 2805 2808 2810 2811 2811 2813 2814 2815 2817 2819 2821 2822 2823 2824 2825 2827 2828 2829 2829 2830 2831 2832 2832 2833 2834 2834 2834 2834 2834
2667 2665 2664 2663 2663 2664 2668 2674 2679 2684 2689 2693 2695 2698 2702 2706 2711 2717 2722 2727 2731 2735 2738 2741 2743 2745 2748 2750 2752 2755 2758 2761 2765 2769 2772 2774 2777 2780 2782 2784 2788 2791 2794 2797 2800 2802 2804 2806 2806 2808 2809 2811 2813 2814 2816 2817 2819 2820 2821 2822 2823 2824 2825 2825 2826 2827 2827 2828 2829 2829 2830 2830 2830 2829
2664 2662 2661 2659 2660 2662 2667 2673 2677 2682 2686 2690 2693 2695 2700 2705 2710 2714 2719 2724 2728 2731 2733 2736 2738 2739 2742 2744 2747 2750 2754 2757 2762 2766 2768 2771 2774 2776 2778 2782 2785 2788 2791 2794 2797 2798 2800 2802 2803 2804 2806 2808 2810 2811 2813 2814 2815 2817 2818 2819 2820 2820 2821 2822 2822 2823 2823 2824 2824 2825 2825 2825 2825 2824
2662 2660 2658 2657 2659 2663 2667 2671 2676 2680 2684 2688 2690 2694 2699 2703 2707 2711 2716 2720 2724 2726 2729 2731 2732 2735 2737 2739 2742 2746 2750 2754 2759 2762 2765 2767 2770 2773 2776 2779 2782 2784 2788 2791 2793 2795 2797 2798 2800 2801 2803 2805 2807 2808 2810 2811 2813 2814 2815 2816 2816 2817 2818 2818 2819 2819 2819 2820 2820 2820 2820 2820 2820 2820
2659 2658 2657 2656 2659 2663 2667 2671 2674 2679 2682 2686 2689 2693 2698 2701 2704 2708 2713 2716 2719 2722 2724 2726 2728 2730 2733 2735 2739 2743 2747 2752 2756 2759 2761 2764 2767 2770 2773 2776 2778 2781 2785 2788 2791 2793 2794 2795 2796 2798 2800 2802 2804 2805 2807 2809 2810 2811 2812 2813 2813 2814 2815 2815 2815 2815 2815 2816 2816 2816 2816 2816 2816 2815
2657 2656 2656 2657 2661 2664 2667 2671 2675 2678 2681 2684 2688 2692 2696 2699 2702 2706 2710 2713 2716 2718 2720 2722 2724 2727 2729 2733 2737 2742 2746 2750 2753 2756 2758 2761 2764 2767 2770 2773 2775 2778 2782 2786 2788 2790 2791 2792 2794 2796 2797 2799 2801 2803 2805 2806 2808 2809 2809 2810 2810 2811 2811 2811 2812 2812 2812 2812 2812 2812 2811 2811 2811 2811
2655 2655 2656 2659 2662 2665 2668 2671 2674 2677 2680 2684 2688 2692 2695 2697 2700 2705 2708 2710 2712 2714 2716 2718 2721 2724 2728 2732 2737 2741 2744 2746 2749 2751 2754 2757 2761 2764 2767 2770 2773 2776 2780 2783 2785 2786 2788 2790 2791 2793 2795 2797 2799 2801 2803 2804 2805 2806 2807 2807 2808 2808 2808 2808 2809 2809 2809 2809 2808 2808 2808 2808 2807 2807
2653 2654 2656 2659 2662 2665 2668 2672 2675 2677 2680 2683 2686 2691 2693 2695 2698 2703 2705 2707 2709 2711 2713 2716 2719 2722 2726 2730 2734 2736 2739 2742 2745 2748 2752 2755 2759 2762 2765 2768 2771 2774 2777 2780 2782 2784 2785 2787 2789 2791 2793 2795 2797 2799 2801 2802 2803 2804 2804 2805 2806 2806 2806 2806 2806 2806 2806 2806 2805 2804 2804 2805 2805 2804
2653 2653 2655 2659 2662 2666 2669 2672 2675 2678 2681 2683 2686 2689 2692 2693 2696 2701 2703 2705 2707 2708 2710 2713 2716 2719 2723 2726 2729 2732 2735 2738 2742 2746 2750 2754 2757 2760 2763 2766 2768 2771 2774 2777 2779 2781 2783 2785 2787 2789 2791 2793 2795 2797 2799 2800 2801 2802 2802 2803 2804 2805 2805 2804 2804 2804 2803 2803 2803 2802 2802 2802 2802 2802
2653 2653 2656 2660 2664 2667 2670 2672 2675 2678 2681 2683 2686 2689 2691 2692 2695 2699 2701 2703 2704 2706 2707 2710 2713 2716 2719 2723 2726 2729 2733 2736 2741 2744 2748 2751 2754 2757 2760 2763 2766 2769 2772 2774 2776 2778 2781 2783 2785 2787 2789 2791 2793 2796 2797 2798 2799 2800 2801 2801 2803 2803 2803 2803 2802 2802 2802 2801 2801 2800 2800 2800 2800 2800
2654 2655 2658 2662 2665 2668 2671 2673 2676 2679 2682 2684 2686 2688 2690 2692 2694 2697 2699 2701 2702 2704 2705 2708 2710 2714 2718 2721 2724 2727 2731 2735 2739 2743 2746 2749 2752 2755 2759 2761 2764 2767 2770 2772 2774 2776 2779 2781 2784 2786 2788 2790 2792 2794 2795 2796 2797 2798 2799 2800 2801 2802 2802 2802 2801 2801 2801 2800 2800 2800 2799 2800 2800 2800
2657 2658 2662 2665 2668 2670 2673 2675 2678 2680 2682 2683 2685 2688 2690 2692 2694 2696 2698 2700 2701 2702 2704 2707 2710 2713 2717 2720 2723 2726 2730 2734 2738 2741 2745 2748 2751 2754 2757 2760 2762 2765 2768 2770 2772 2774 2777 2779 2782 2784 2786 2788 2790 2792 2794 2795 2796 2797 2798 2799 2800 2801 2801 2801 2800 2800 2800 2800 2799 2799 2799 2799 2799 2799
2659 2661 2664 2667 2670 2672 2674 2677 2679 2680 2681 2683 2685 2687 2689 2691 2693 2695 2697 2698 2700 2701 2703 2706 2709 2712 2716 2719 2723 2726 2730 2733 2737 2740 2743 2746 2749 2752 2755 2758 2760 2763 2766 2768 2770 2773 2775 2777 2780 2782 2784 2787 2789 2791 2792 2794 2795 2796 2797 2798 2799 2799 2800 2800 2800 2800 2800 2799 2799 2798 2798 2799 2799 2798
2662 2663 2666 2668 2671 2674 2675 2677 2678 2680 2681 2683 2685 2687 2689 2690 2693 2695 2696 2698 2699 2701 2703 2706 2709 2713 2716 2719 2722 2726 2729 2732 2736 2739 2742 2745 2748 2751 2753 2756 2759 2761 2764 2766 2768 2771 2774 2776 2779 2781 2783 2785 2788 2789 2791 2793 2794 2795 2796 2797 2798 2798 2799 2799 2800 2799 2799 2799 2798 2798 2797 2797 2797 2797
2665 2666 2668 2669 2671 2673 2675 2677 2679 2680 2681 2682 2684 2686 2688 2690 2692 2694 2696 2697 2699 2701 2704 2707 2710 2713 2716 2719 2722 2725 2729 2732 2735 2738 2742 2744 2747 2750 2752 2755 2757 2760 2762 2764 2767 2770 2772 2775 2777 2779 2782 2784 2786 2788 2790 2791 2792 2794 2795 2796 2797 2797 2798 2799 2799 2799 2799 2798 2798 2798 2797 2797 2796 2796
2668 2669 2670 2671 2672 2673 2675 2676 2678 2679 2680 2681 2683 2685 2687 2689 2691 2693 2695 2697 2700 2702 2705 2707 2710 2713 2716 2719 2722 2725 2728 2731 2734 2737 2740 2743 2746 2749 2751 2754 2756 2759 2761 2763 2766 2768 2771 2773 2776 2778 2781 2783 2785 2787 2788 2790 2791 2793 2794 2795 2795 2796 2797 2798 2798 2799 2799 2798 2798 2797 2797 2797 2796 2796
2671 2671 2672 2673 2674 2675 2675 2676 2677 2678 2679 2681 2682 2684 2685 2687 2690 2693 2695 2698 2700 2702 2705 2707 2710 2713 2716 2719 2722 2725 2728 2731 2734 2737 2740 2742 2745 2748 2751 2753 2755 2757 2760 2762 2765 2767 2770 2772 2775 2777 2779 2781 2783 2785 2787 2789 2790 2792 2793 2794 2795 2796 2796 2797 2798 2798 2798 2798 2797 2797 2797 2797 2796 2796
2673 2673 2674 2674 2675 2676 2677 2677 2678 2679 2680 2681 2682 2684 2685 2687 2690 2693 2696 2698 2701 2703 2705 2708 2710 2713 2716 2719 2722 2725 2728 2730 2733 2736 2739 2742 2744 2747 2749 2752 2754 2756 2759 2761 2764 2766 2769 2772 2774 2776 2778 2780 2782 2783 2785 2787 2789 2790 2792 2793 2794 2795 2796 2796 2797 2798 2798 2797 2797 2797 2797 2797 2796 2796
2674 2674 2674 2675 2676 2677 2677 2678 2679 2680 2680 2681 2683 2684 2686 2688 2690 2694 2696 2699 2702 2704 2706 2709 2711 2714 2717 2720 2722 2725 2728 2730 2733 2736 2738 2741 2743 2746 2748 2751 2753 2755 2758 2760 2762 2765 2768 2770 2772 2774 2776 2778 2780 2782 2784 2786 2788 2789 2791 2792 2793 2794 2795 2796 2796 2797 2797 2797 2797 2797 2797 2797 2796 2796
2674 2675 2675 2676 2676 2677 2678 2679 2679 2679 2680 2681 2683 2685 2687 2689 2692 2695 2698 2700 2703 2705 2708 2710 2713 2715 2718 2720 2723 2725 2728 2730 2733 2735 2738 2740 2742 2745 2747 2749 2752 2754 2756 2759 2762 2764 2766 2769 2771 2772 2775 2777 2779 2781 2783 2785 2787 2788 2790 2791 2792 2793 2794 2795 2796 2796 2797 2797 2797 2797 2797 2797 2797 2796
2675 2675 2676 2676 2677 2678 2678 2679 2679 2679 2680 2682 2684 2686 2688 2690 2693 2696 2699 2702 2704 2707 2709 2711 2714 2716 2719 2721 2724 2726 2729 2731 2733 2735 2737 2740 2742 2744 2746 2749 2751 2753 2755 2758 2761 2763 2765 2767 2770 2771 2774 2776 2779 2780 2781 2783 2785 2787 2788 2789 2791 2792 2793 2794 2795 2795 2796 2797 2798 2798 2797 2797 2797 2797
2676 2676 2676 2677 2677 2678 2678 2679 2679 2680 2681 2683 2685 2687 2690 2692 2695 2698 2701 2704 2706 2709 2711 2713 2715 2717 2720 2722 2724 2727 2729 2731 2733 2735 2737 2739 2741 2743 2745 2748 2750 2752 2754 2757 2760 2762 2764 2766 2768 2770 2773 2775 2777 2778 2780 2782 2783 2785 2786 2788 2789 2791 2792 2793 2794 2795 2796 2797 2798 2798 2798 2798 2798 2797
2676 2676 2676 2677 2677 2678 2678 2679 2680 2681 2682 2683 2686 2688 2691 2694 2697 2699 2702 2705 2708 2710 2712 2714 2716 2719 2721 2723 2725 2727 2730 2732 2734 2736 2738 2739 2741 2743 2745 2747 2749 2751 2753 2756 2758 2761 2763 2765 2767 2769 2771 2773 2775 2777 2779 2780 2782 2783 2784 2786 2787 2789 2791 2792 2793 2794 2795 2797 2798 2798 2798 2798 2798 2798